STARLINK-1087 (44965 NORAD) Tracking and Keplerian Element Data

This shows tracking and keplerian element data for the satellite.

Feedback or suggestion? Click here.




ElementValue
Catalog44965
NameSTARLINK-1087
Epoch Orbit2318
Epoch Day149.39419905
Epoch Year2020
RAAN46.5395
Inclination52.9965
Eccentricity0.0009451
Argument of Perigee261.7971
Mean Anonmoly98.2128
Mean Motion16.26179976
Decay Rate0.00737614
L11 44965U 20001BD 20149.39419905 .00737614 11979-4 22164-3 0 9994
L22 44965 52.9965 46.5395 0009451 261.7971 98.2128 16.26179976 23188

Live tracking and technical data element details for STARLINK-1087 (NORAD 44965). STARLINK-1087 can be tracked NOW for your location showing map with azimuth and elevation plus other details from your city location.

Track the satellite on the map from your city or location and see movement details for azimuth, elevation, latitude, longitude, range, height, and movement on the map or in text.







IsCatalogInMostPopularTable: catalog: 44965, numindb: 37
Update: records affected: 1



GetName: 44965 STARLINK-1087

Hit Count: updated at: Wed, 08 Jul 2020 04:42:13 GMT